Syracuse, NY

7:25 PM EST on February 06, 2016 (GMT -0500)
Syracuse Hancock International

Weather History for KSYR - September, 2011

Change the Weather History Date:

Friday, September 16, 2011

  Actual Average Record
Temperature  
Mean Temperature 53 °F 62 °F  
Max Temperature 62 °F 72 °F 98 °F (1939)
Min Temperature 43 °F 52 °F 35 °F (1964)
Degree Days  
Heating Degree Days 12 4  
Month to date heating degree days 30 44  
Since 1 July heating degree days 32 70  
Cooling Degree Days 0 2  
Month to date cooling degree days 75 41  
Year to date cooling degree days 882 554  
Growing Degree Days 2 (Base 50)    
Moisture  
Dew Point 41 °F    
Average Humidity 66    
Maximum Humidity 89    
Minimum Humidity 42    
Precipitation  
Precipitation 0.01 in 0.12 in 2.30 in (1999)
Month to date precipitation 3.91 1.90  
Year to date precipitation 36.55 26.49  
Snow  
Snow 0.00 in 0.00 in 0.00 in (2002)
Month to date snowfall 0.0 0.0  
Since 1 July snowfall 0.0 0.0  
Since 1 September snowfall 0.0 0.0  
Snow Depth 0.00 in    
Sea Level Pressure  
Sea Level Pressure 30.31 in    
Wind  
Wind Speed 5 mph (NW)    
Max Wind Speed 17 mph    
Max Gust Speed 28 mph    
Visibility 10 miles    
Events Fog , Rain    
T = Trace of Precipitation, MM = Missing Value Source: NWS Daily Summary

Daily Weather History Graph

Daily Weather History Graph

Search for Another Location

Airport or City:

Trip Planner

Search our weather history database for the weather conditions in past years. The results will help you decide how hot, cold, wet, or windy it might be!

Date:

Astronomy

Sep. 16, 2011 Rise Set
Actual Time 6:44 AM EDT 7:13 PM EDT
Civil Twilight 6:16 AM EDT 7:41 PM EDT
Nautical Twilight 5:42 AM EDT 8:15 PM EDT
Astronomical Twilight 5:07 AM EDT 8:49 PM EDT
Moon 8:53 PM EDT (9/16) 10:56 AM EDT (9/16)
Length of Visible Light 13h 25m
Length of Day
12h 28m
Waning Gibbous, 84% of the Moon is Illuminated
Sep 16
Waning Gibbous
Sep 20
Last Quarter
Sep 27
New
Oct 3
First Quarter
Oct 11
Full

Hourly Weather History & Observations

Time (EDT) Temp. Windchill Dew Point Humidity Pressure Visibility Wind Dir Wind Speed Gust Speed Precip Events Conditions
12:54 AM 46.0 °F 42.5 °F 39.9 °F 79% 30.20 in 10.0 mi WNW 6.9 mph - N/A   Scattered Clouds
1:54 AM 46.9 °F - 42.1 °F 83% 30.21 in 10.0 mi Calm Calm - N/A   Mostly Cloudy
2:54 AM 45.0 °F 41.8 °F 39.9 °F 82% 30.22 in 10.0 mi WNW 5.8 mph - N/A   Mostly Cloudy
3:54 AM 46.0 °F 42.5 °F 39.9 °F 79% 30.23 in 10.0 mi WNW 6.9 mph - N/A   Partly Cloudy
4:54 AM 46.9 °F - 42.1 °F 83% 30.24 in 10.0 mi NE 3.5 mph - 0.01 in Rain Light Rain
5:54 AM 45.0 °F - 41.0 °F 86% 30.27 in 10.0 mi Calm Calm - 0.00 in   Mostly Cloudy
6:54 AM 44.1 °F 41.5 °F 41.0 °F 89% 30.29 in 10.0 mi SW 4.6 mph - N/A Fog Patches of Fog
7:54 AM 48.0 °F - 43.0 °F 83% 30.32 in 10.0 mi Calm Calm - N/A   Scattered Clouds
8:54 AM 52.0 °F - 44.1 °F 74% 30.33 in 10.0 mi West 3.5 mph - N/A   Scattered Clouds
9:54 AM 54.0 °F - 41.0 °F 62% 30.34 in 10.0 mi WNW 4.6 mph - N/A   Scattered Clouds
10:54 AM 57.0 °F - 39.9 °F 53% 30.35 in 10.0 mi North 9.2 mph - N/A   Mostly Cloudy
11:54 AM 59.0 °F - 37.9 °F 46% 30.34 in 10.0 mi NNW 11.5 mph - N/A   Mostly Cloudy
12:54 PM 59.0 °F - 37.9 °F 46% 30.33 in 10.0 mi NNW 12.7 mph - N/A   Mostly Cloudy
1:54 PM 57.0 °F - 39.0 °F 51% 30.33 in 10.0 mi North 11.5 mph - N/A   Mostly Cloudy
2:54 PM 57.9 °F - 37.9 °F 47% 30.33 in 10.0 mi NNW 11.5 mph - N/A   Mostly Cloudy
3:54 PM 60.1 °F - 37.9 °F 44% 30.32 in 10.0 mi North 10.4 mph - N/A   Scattered Clouds
4:54 PM 60.1 °F - 39.9 °F 47% 30.33 in 10.0 mi NW 13.8 mph 19.6 mph N/A   Mostly Cloudy
5:54 PM 57.9 °F - 41.0 °F 53% 30.33 in 10.0 mi North 9.2 mph - N/A   Mostly Cloudy
6:54 PM 55.0 °F - 39.9 °F 57% 30.34 in 10.0 mi NNW 6.9 mph - N/A   Scattered Clouds
7:54 PM 51.1 °F - 42.1 °F 71% 30.34 in 10.0 mi Calm Calm - N/A   Scattered Clouds
8:54 PM 48.0 °F - 44.1 °F 86% 30.35 in 10.0 mi Calm Calm - N/A   Scattered Clouds
9:54 PM 48.0 °F - 43.0 °F 83% 30.36 in 10.0 mi Calm Calm - N/A   Scattered Clouds
10:54 PM 48.0 °F - 43.0 °F 83% 30.37 in 10.0 mi Calm Calm - N/A   Overcast
11:54 PM 48.0 °F - 43.0 °F 83% 30.38 in 10.0 mi Calm Calm - N/A   Mostly Cloudy